User: anonymous   Login
Location: Unspecified
(0.0000°N, 0.0000°E)
Time: 09:26:10
(UTC+01:00)
Language:

Cosmos 1703 Rocket - Orbit

View from above orbital plane
View from above orbital plane
View from above satellite
View from above satellite

Ground track
Ground track

The orbit data is extracted from the following two-line orbital elements,

1 16263U 85108B   16339.03568182  .00000118  00000-0  11630-4 0  9990
2 16263  82.5032 297.3814 0018541 271.2202 133.1573 14.82958824675461
Epoch (UTC): 04 December 2016 00:51:22
Eccentricity: 0.0018541
inclination: 82.5032°
perigee height: 607 km
apogee height: 633 km
right ascension of ascending node: 297.3814°
argument of perigee: 271.2202°
revolutions per day: 14.82958824
mean anomaly at epoch: 133.1573°
orbit number at epoch: 67546

The dashed part of the orbit path shows where the satellite is in the earth's shadow,  

DLR